Home   Weather   Saint-Denis   Past weeks

Flag for Réunion (French) Past Weather in Saint-Denis, Réunion (French) — Yesterday and Last 2 Weeks

81 °F

Scattered clouds.

Feels Like: 83 °F
Forecast: 71 / 77 °F
Wind: 9 mph from Northeast

Location: Saint-Denis / Gillot

Current Time: Oct 28, 2016 at 4:11:58 PM

Latest Report: Oct 28, 2016 at 3:00 PM

Visibility: N/A

Pressure: 30.04 "Hg

Humidity: 66%

Dew Point: 68 °F

Location of Saint-DenisLocation

Past Weather in Saint-Denis — Graph


Saint-Denis Temperature Yesterday

Maximum temperature yesterday: 81 °F (at 12:30 PM)
Minimum temperature yesterday: 72 °F (at 12:00 AM)
Average temperature yesterday: 75 °F

High & Low Weather Summary for the Past Weeks

High82 °F (Oct 14, 4:00 PM)94% (Oct 24, 7:00 PM)30.18 "Hg (Oct 24, 7:00 PM)
Low66 °F (Oct 19, 10:30 PM)40% (Oct 14, 4:00 PM)29.98 "Hg (Oct 26, 3:30 PM)
Average75 °F69%30.10 "Hg
* Reported Oct 13 3:00 PM — Oct 28 3:00 PM, Saint-Denis, Weather by CustomWeather, © 2016

Note: Actual official high and low records may vary slightly from our data, if they occured in-between our weather recording intervals... More about our weather records


Saint-Denis Weather History for the Previous 24 Hours

Scroll right to see more
Time TempWeatherWind HumidityBarometerVisibility
3:00 PM
Fri, Oct 28
81 °FScattered clouds.9 mph66%30.04 "HgN/A
2:30 PM81 °FScattered clouds.9 mph66%30.04 "HgN/A
2:00 PM79 °FBroken clouds.10 mph70%30.07 "HgN/A
1:30 PM81 °FScattered clouds.13 mph66%30.07 "HgN/A
1:08 PM79 °FScattered clouds.12 mph70%30.07 "HgN/A
12:30 PM81 °FScattered clouds.12 mph66%30.09 "HgN/A
12:00 PM81 °FPartly sunny.12 mph66%30.09 "HgN/A
11:30 AM81 °FScattered clouds.12 mph66%30.09 "HgN/A
11:00 AM81 °FScattered clouds.12 mph66%30.12 "HgN/A
10:30 AM82 °FScattered clouds.14 mph62%30.12 "HgN/A
10:00 AM81 °FScattered clouds.12 mph70%30.12 "HgN/A
9:30 AM79 °FScattered showers. Broken clouds.12 mph70%30.12 "HgN/A
9:00 AM79 °FScattered showers. Broken clouds.7 mph65%30.12 "HgN/A
8:30 AM77 °FScattered showers. Broken clouds.5 mph69%30.12 "HgN/A
8:00 AM75 °FBroken clouds.7 mph74%30.12 "HgN/A
7:30 AM73 °FBroken clouds.8 mph74%30.12 "HgN/A
7:00 AM73 °FBroken clouds.8 mph78%30.12 "HgN/A
6:30 AM73 °FBroken clouds.8 mph74%30.09 "HgN/A
6:00 AM73 °FScattered clouds.8 mph74%30.09 "HgN/A
5:30 AM73 °FMostly cloudy.10 mph74%30.07 "HgN/A
5:00 AM72 °FMostly cloudy.10 mph78%30.07 "HgN/A
4:30 AM72 °FOvercast.13 mph83%30.07 "HgN/A
4:00 AM70 °FMostly cloudy.14 mph88%30.07 "HgN/A
3:30 AM70 °FOvercast.12 mph88%30.07 "HgN/A
3:00 AM70 °FOvercast.8 mph88%30.09 "HgN/A
2:30 AM72 °FLight rain. Fog.10 mph88%30.09 "Hg3 mi
2:00 AM73 °FMostly cloudy.6 mph83%30.09 "HgN/A
1:30 AM73 °FPassing clouds.12 mph83%30.09 "HgN/A
1:00 AM75 °FPassing clouds.6 mph69%30.07 "HgN/A
12:30 AM75 °FMostly cloudy.5 mph74%30.09 "HgN/A
12:00 AM75 °FMostly cloudy.8 mph74%30.09 "HgN/A
11:30 PM
Thu, Oct 27
75 °FOvercast.9 mph74%30.09 "HgN/A
11:00 PM75 °FMostly cloudy.12 mph74%30.09 "HgN/A
10:30 PM75 °FMostly cloudy.10 mph74%30.09 "HgN/A
10:00 PM75 °FOvercast.10 mph74%30.09 "HgN/A
9:30 PM73 °FPassing clouds.10 mph78%30.09 "HgN/A
9:00 PM73 °FPassing clouds.13 mph78%30.09 "HgN/A
8:30 PM73 °FClear.12 mph78%30.09 "Hg10 mi
8:00 PM73 °FPassing clouds.10 mph78%30.09 "HgN/A
7:30 PM75 °FPassing clouds.12 mph74%30.09 "HgN/A
7:00 PM75 °FOvercast.12 mph74%30.07 "HgN/A
6:30 PM75 °FPassing clouds.10 mph74%30.07 "HgN/A
6:00 PM77 °FPartly sunny.9 mph69%30.04 "HgN/A
5:30 PM77 °FScattered clouds.10 mph69%30.04 "HgN/A
5:00 PM77 °FScattered clouds.10 mph69%30.04 "HgN/A
4:30 PM79 °FScattered clouds.12 mph65%30.04 "HgN/A
4:00 PM79 °FPartly sunny.14 mph61%30.04 "HgN/A
Weather by CustomWeather, © 2016

See weather overviewHow to use our weather pages